This is the latest recevied weather packets stored in our database for station/object AA5QJ. If no packets are shown the sender has not sent any weather packets the latest 1 day(s).
| Time | Temp. | Humidity | Pressure | Rain* | Wind** | Luminosity | Snow |
|---|---|---|---|---|---|---|---|
| 1778022176 | 20.56° C | 33% | 1007.5 hPa | 0 mm | 2.68 m/s, 136° | - | - |
| 1778021875 | 20.56° C | 34% | 1007.5 hPa | 0 mm | 2.24 m/s, 117° | - | - |
| 1778021575 | 20.56° C | 34% | 1007.5 hPa | 0 mm | 1.79 m/s, 127° | - | - |
| 1778021274 | 20.56° C | 33% | 1007.8 hPa | 0 mm | 1.34 m/s, 266° | - | - |
| 1778020974 | 20.56° C | 33% | 1007.8 hPa | 0 mm | 0 m/s | - | - |
| 1778020674 | 20.56° C | 33% | 1007.8 hPa | 0 mm | 1.34 m/s, 141° | - | - |
| 1778020374 | 21.11° C | 32% | 1007.8 hPa | 0 mm | 2.68 m/s, 176° | - | - |
| 1778020076 | 21.11° C | 33% | 1007.8 hPa | 0 mm | 1.34 m/s, 138° | - | - |
| 1778019776 | 21.11° C | 33% | 1007.8 hPa | 0 mm | 2.24 m/s, 318° | - | - |
| 1778019475 | 21.11° C | 33% | 1008.2 hPa | 0 mm | 1.79 m/s, 262° | - | - |
| 1778019175 | 21.11° C | 33% | 1008.2 hPa | 0 mm | 2.24 m/s, 253° | - | - |
| 1778018874 | 21.11° C | 34% | 1008.2 hPa | 0 mm | 0.89 m/s, 293° | - | - |
| 1778018575 | 21.11° C | 34% | 1008.2 hPa | 0 mm | 1.79 m/s, 181° | - | - |
| 1778018275 | 21.11° C | 34% | 1008.2 hPa | 0 mm | 1.79 m/s, 141° | - | - |
| 1778017975 | 20.56° C | 34% | 1008.2 hPa | 0 mm | 0 m/s | - | - |
| 1778017675 | 20° C | 35% | 1008.5 hPa | 0 mm | 1.79 m/s, 269° | - | - |
| 1778017375 | -48.33° C | 35% | 1008.5 hPa | 0 mm | 2.24 m/s, 135° | - | - |
| 1778017075 | -6.11° C | 35% | 1008.5 hPa | 0 mm | 2.24 m/s, 91° | - | - |
| 1778016775 | -6.11° C | 36% | 1008.5 hPa | 0 mm | 0.45 m/s, 80° | - | - |
| 1778016475 | 3.89° C | 36% | 1008.5 hPa | 0 mm | 0.89 m/s, 211° | - | - |
| 1778016175 | -2.78° C | 36% | 1008.5 hPa | 0 mm | 2.68 m/s, 75° | - | - |
| 1778015874 | -6.11° C | 37% | 1008.5 hPa | 0 mm | 2.24 m/s, 89° | - | - |
| 1778015574 | -3.89° C | 36% | 1008.8 hPa | 0 mm | 3.13 m/s, 41° | - | - |
| 1778015274 | -3.33° C | 36% | 1008.8 hPa | 0 mm | 2.68 m/s, 113° | - | - |
| 1778014975 | 1.67° C | 36% | 1008.8 hPa | 0 mm | 3.13 m/s, 203° | - | - |
* Rain latest hour (hover to see other rain measurements)
** Current wind speed in m/s (hover to see current wind gust speed)